Wind_Speed
19 17 11 7 7 6 6 14 25 30 32 32 32 31 31 31 32 31 32 35 35 40 43 43 44 45 41 39 40 43 40 34 37 38 29 33 36 38 39 41 39 35 36 40 40
16 14 10 6 1 2 5 12 22 27 30 32 33 32 31 31 32 32 35 33 34 37 40 42 45 46 45 46 44 44 40 32 34 35 40 43 41 36 38 42 42 43 42 44 46
16 12 10 7 5 4 6 9 13 19 25 28 29 30 29 29 30 33 34 34 35 37 37 39 42 43 44 48 49 48 42 39 37 35 38 44 46 43 44 42 44 42 43 41 41
12 12 9 8 10 11 12 14 16 17 18 20 21 22 24 25 27 31 31 34 36 36 35 37 37 38 39 42 43 47 45 46 44 44 46 47 50 50 49 47 49 48 43 40 40
12 12 10 9 11 14 17 17 17 18 19 18 18 18 18 20 22 23 24 28 32 33 35 35 36 36 37 35 40 41 40 39 40 45 50 53 55 53 50 48 49 48 47 44 43
14 11 12 11 11 14 17 21 21 21 21 21 20 20 20 20 19 21 21 22 24 27 30 32 29 32 35 35 39 36 37 39 38 40 43 47 48 49 45 46 44 42 44 42 42
15 13 10 14 12 13 16 18 22 23 23 23 22 23 24 23 22 23 24 24 24 25 26 28 31 32 33 35 39 40 40 40 40 41 43 46 44 40 36 36 42 43 43 44 44
17 13 13 13 14 13 15 17 19 21 23 24 24 24 24 23 25 27 27 27 26 26 28 30 30 30 31 33 33 34 34 35 37 37 40 43 41 37 32 40 41 42 45 45 42
16 15 12 9 19 14 14 16 18 19 21 22 23 23 25 25 25 25 26 28 29 29 29 30 31 31 30 29 31 33 33 30 24 28 28 35 36 33 34 37 37 39 40 40 38
13 16 15 13 12 20 17 14 16 19 20 21 24 24 24 23 24 26 29 28 27 28 31 30 29 27 27 30 29 28 29 26 25 28 32 32 37 35 32 34 35 38 36 35 32
14 13 18 17 15 13 17 26 18 17 19 20 21 23 22 25 26 27 29 29 29 30 29 29 30 29 29 30 28 30 32 29 29 27 35 36 38 36 37 36 37 37 37 35 33
12 12 17 20 19 19 18 15 19 24 21 19 24 23 23 22 22 26 28 28 28 29 31 31 27 28 30 31 32 33 35 35 34 36 40 37 37 37 39 40 37 37 35 31 33
5 6 11 16 20 22 22 19 15 20 24 20 20 20 22 23 24 23 24 25 27 28 29 28 28 30 31 33 36 37 37 37 39 38 42 43 40 38 38 39 39 37 30 31 37
5 4 2 8 17 18 18 20 14 11 20 27 24 21 20 20 21 23 25 26 27 26 28 27 28 28 31 31 31 34 33 34 34 39 41 41 41 41 42 42 40 37 34 34 33
6 5 4 5 10 15 16 14 12 13 10 12 26 31 26 22 23 22 22 23 23 25 31 30 35 35 34 35 38 39 38 41 40 40 40 36 45 43 41 43 39 43 42 38 38
5 4 4 3 7 13 15 14 12 12 10 9 7 14 21 28 25 31 28 25 25 27 25 24 26 27 31 37 40 43 41 41 41 42 44 38 39 42 33 35 41 39 42 41 37
4 3 4 5 6 8 10 12 11 10 11 13 12 9 6 8 8 9 14 28 33 31 27 27 26 26 28 30 34 37 39 38 39 37 39 35 37 41 27 37 38 39 42 43 33
4 3 3 4 7 8 10 11 12 12 14 13 11 9 11 10 10 11 13 14 17 23 33 37 33 31 34 32 32 34 36 38 42 41 37 34 42 37 32 35 34 38 43 38 36
6 3 3 4 9 13 15 14 7 22 17 10 9 9 10 10 10 11 13 16 17 16 18 20 24 34 41 45 44 39 41 44 46 46 42 38 32 30 32 37 39 38 42 47 41
8 7 6 5 8 14 17 16 15 14 9 9 8 6 8 7 7 5 5 5 4 5 9 9 12 17 17 19 28 26 27 36 36 36 34 31 27 24 27 30 33 39 47 51 52
10 9 8 6 8 11 14 13 10 12 10 9 9 8 6 6 5 5 6 7 6 5 7 8 9 12 13 13 18 24 23 28 28 31 34 33 26 27 29 30 32 37 39 41 46
8 9 10 9 12 13 6 10 14 13 12 10 10 9 8 9 10 11 13 11 10 12 14 14 15 16 17 22 24 25 29 30 33 34 35 38 35 36 39 39 41 43 44 43 51
6 5 8 10 12 12 13 13 13 14 13 15 14 12 12 14 16 16 18 14 17 19 18 19 20 19 20 24 26 29 31 34 37 38 39 42 43 44 42 40 39 39 41 43 47
7 8 7 6 10 7 10 10 13 11 10 13 12 11 11 12 14 16 17 15 15 16 19 22 22 22 22 25 29 31 34 35 38 44 45 47 47 44 46 49 41 42 44 47 47
13 12 12 11 11 13 15 13 11 8 10 11 11 10 13 12 13 17 17 18 17 18 20 21 22 27 28 29 31 33 34 33 39 42 46 42 44 45 51 49 46 53 55 45 41
17 14 11 10 16 17 16 16 13 11 14 11 13 13 14 14 15 17 16 18 17 17 19 19 22 27 28 31 36 34 31 36 36 37 39 37 37 40 43 45 46 51 55 55 57
22 20 18 23 17 17 15 14 15 15 13 13 12 12 12 15 14 14 15 16 17 19 20 20 23 27 26 31 34 34 31 27 26 25 26 27 28 30 31 33 36 35 34 36 40
Wind_Direction
321 326 323 337 352 318 291 190 168 168 173 181 185 193 195 194 195 195 196 202 204 214 217 221 227 230 229 240 239 223 222 219 208 205 199 210 223 238 241 246 248 255 263 261 261
309 320 317 298 314 337 217 193 180 175 179 185 188 193 196 196 195 196 199 202 202 209 213 215 219 225 228 231 237 246 239 227 217 221 214 219 220 222 238 244 247 252 258 269 274
292 302 304 273 224 190 202 191 188 188 189 191 191 196 200 201 200 199 200 200 203 206 210 214 219 223 225 230 231 238 243 243 238 236 239 243 233 232 237 245 254 255 258 259 273
304 276 284 263 232 196 194 195 188 186 188 189 191 197 201 202 202 205 203 203 206 209 210 215 218 220 222 227 232 233 235 237 239 239 235 239 246 250 249 248 254 259 264 268 268
288 276 256 249 228 220 196 195 193 188 186 189 188 186 186 192 199 202 204 206 210 211 213 216 216 220 223 226 230 231 234 235 233 237 239 240 242 243 249 254 256 261 265 261 263
268 286 250 243 231 223 218 201 196 197 195 192 191 190 188 193 190 194 195 197 204 208 214 220 222 223 223 225 229 232 232 233 232 234 237 239 240 243 245 253 255 254 254 254 257
251 267 264 230 227 215 224 223 212 207 204 202 200 197 197 194 188 197 198 199 199 203 205 208 216 219 223 229 232 234 235 235 235 239 242 244 246 247 246 252 252 253 254 253 251
238 246 262 229 222 225 212 220 225 220 216 214 211 209 207 198 192 202 203 204 205 208 210 211 216 218 225 226 232 236 239 238 239 241 247 253 254 256 254 245 248 250 251 253 254
245 232 244 244 224 220 221 215 216 224 225 221 221 218 217 209 209 214 211 210 211 214 218 220 221 221 224 227 229 231 237 239 244 238 233 237 244 244 244 247 246 248 250 251 249
257 233 225 234 222 229 223 218 217 218 217 223 226 221 224 223 215 213 222 219 221 222 226 226 230 230 229 226 228 238 237 235 232 227 223 224 232 235 237 243 240 242 244 246 243
267 235 222 217 222 211 226 231 230 224 218 218 222 223 221 226 226 223 224 225 224 227 233 233 232 234 236 236 233 233 235 231 233 233 239 234 235 237 237 235 240 242 245 250 254
271 245 226 220 222 219 225 224 227 220 221 214 220 219 218 218 227 225 226 229 230 230 231 233 237 239 241 243 242 242 241 238 234 226 240 237 241 244 248 248 249 254 256 258 256
294 265 241 227 221 220 220 230 228 229 218 218 225 220 220 221 227 229 229 227 224 228 234 236 235 237 237 239 241 239 240 243 244 238 242 245 246 242 246 250 255 260 268 275 277
276 287 283 223 222 222 217 228 223 215 229 224 219 218 215 213 222 222 228 232 236 231 231 226 228 230 234 237 244 247 251 249 248 252 248 249 254 249 251 256 265 279 286 278 270
280 268 261 240 225 219 217 216 213 220 219 233 227 223 226 223 227 221 223 225 231 231 236 236 237 239 240 239 242 245 239 243 250 252 256 247 257 258 255 268 273 266 263 253 254
275 264 247 227 221 221 222 210 203 214 205 212 206 216 232 239 249 240 228 228 231 235 236 237 242 244 246 247 249 253 255 257 255 254 258 259 254 252 256 252 250 256 265 268 271
280 270 261 221 186 191 201 211 202 209 215 201 202 203 230 255 250 246 235 234 237 238 239 232 233 238 241 242 248 253 257 260 262 263 265 264 263 269 267 268 270 267 267 269 263
284 261 211 192 157 153 158 184 202 192 175 184 190 212 237 230 239 245 239 239 238 237 241 246 238 243 249 246 246 252 256 262 268 269 271 275 275 282 277 268 264 260 268 266 265
264 239 201 167 143 138 137 160 167 172 195 209 246 248 240 234 227 220 219 231 246 249 248 248 246 249 250 256 259 256 259 268 274 278 280 276 268 275 266 261 262 260 262 267 259
251 240 217 171 167 147 156 177 173 191 218 198 198 166 141 142 152 150 159 195 198 222 241 231 231 242 253 245 254 255 253 259 263 268 271 279 281 270 264 263 265 264 259 259 263
247 236 218 193 201 158 171 176 203 206 207 195 198 203 180 191 196 218 219 231 221 221 234 240 240 249 250 246 251 265 258 257 264 265 274 278 274 274 269 263 257 253 255 259 267
242 238 228 218 215 178 215 200 195 195 206 214 217 222 233 239 237 242 248 256 268 260 252 251 248 248 259 259 261 264 270 271 269 269 272 274 273 271 267 264 264 264 264 258 248
242 228 226 227 218 207 212 227 228 211 225 233 235 241 243 253 258 259 262 261 259 265 267 264 262 260 261 263 263 264 266 268 270 271 271 272 279 282 276 272 269 269 260 259 264
258 247 242 234 204 193 202 221 230 223 223 237 239 243 247 248 257 261 268 268 269 268 266 265 271 270 269 268 270 272 273 275 276 275 275 274 274 271 270 268 260 261 259 260 264
216 249 243 235 225 216 228 231 224 234 245 253 259 262 256 255 261 271 273 270 269 267 268 273 275 278 278 277 276 277 279 280 276 277 275 274 267 268 264 262 264 258 259 261 260
225 215 235 245 244 240 241 249 251 236 243 256 264 263 266 272 269 269 274 281 283 276 274 276 278 279 283 286 285 286 285 278 279 271 272 274 276 272 273 273 273 271 267 274 275
227 229 241 234 236 247 254 248 251 255 260 261 263 273 262 256 264 272 278 283 289 290 289 293 288 287 289 286 290 294 296 287 282 276 269 271 273 277 281 283 281 281 281 281 282
Height
5737 5734 5730 5727 5725 5723 5722 5720 5722 5728 5734 5742 5748 5755 5762 5767 5773 5779 5786 5790 5799 5803 5811 5819 5822 5826 5831 5834 5838 5840 5847 5857 5863 5866 5872 5867 5868 5869 5873 5873 5875 5875 5876 5878 5881
5734 5732 5730 5728 5726 5726 5726 5727 5727 5730 5735 5741 5747 5753 5758 5763 5769 5775 5778 5787 5793 5799 5805 5812 5815 5820 5827 5831 5833 5834 5844 5852 5858 5858 5860 5857 5861 5865 5867 5866 5871 5874 5877 5876 5873
5730 5729 5728 5727 5727 5726 5728 5729 5731 5734 5737 5741 5746 5751 5756 5760 5766 5770 5776 5782 5788 5794 5799 5805 5810 5816 5822 5824 5829 5832 5838 5842 5848 5851 5853 5853 5859 5859 5860 5864 5865 5869 5869 5873 5874
5726 5725 5726 5726 5727 5726 5728 5730 5733 5736 5739 5742 5745 5749 5754 5758 5764 5766 5773 5778 5783 5789 5794 5800 5805 5810 5815 5819 5823 5826 5832 5836 5842 5844 5846 5849 5850 5852 5855 5858 5858 5862 5867 5867 5867
5722 5721 5722 5723 5724 5726 5726 5728 5731 5734 5738 5741 5745 5749 5753 5757 5761 5764 5770 5774 5779 5785 5790 5794 5800 5804 5808 5813 5814 5819 5825 5829 5835 5836 5838 5840 5842 5847 5848 5852 5856 5858 5861 5864 5860
5718 5717 5718 5720 5722 5723 5726 5727 5729 5732 5735 5739 5743 5747 5751 5754 5758 5762 5766 5771 5776 5780 5785 5790 5794 5798 5802 5806 5808 5813 5816 5819 5824 5827 5829 5830 5834 5838 5845 5844 5849 5850 5850 5852 5853
5713 5713 5713 5715 5718 5720 5723 5726 5728 5731 5734 5737 5740 5744 5748 5752 5757 5759 5763 5767 5772 5776 5781 5783 5786 5791 5795 5799 5802 5804 5809 5813 5817 5820 5819 5819 5825 5832 5839 5839 5838 5839 5841 5842 5845
5708 5709 5710 5710 5714 5717 5719 5722 5726 5729 5732 5736 5739 5743 5747 5751 5755 5756 5759 5763 5767 5771 5774 5777 5780 5785 5789 5792 5795 5799 5803 5806 5809 5814 5816 5815 5820 5823 5826 5826 5827 5829 5830 5833 5836
5703 5704 5706 5706 5709 5712 5716 5718 5721 5725 5729 5733 5736 5740 5743 5748 5751 5754 5758 5760 5763 5767 5770 5772 5775 5779 5785 5788 5791 5792 5795 5801 5808 5806 5806 5806 5810 5815 5814 5816 5818 5819 5822 5824 5827
5698 5700 5702 5703 5704 5707 5711 5714 5717 5721 5724 5729 5732 5738 5740 5744 5748 5752 5753 5758 5761 5764 5766 5769 5772 5776 5779 5781 5785 5788 5790 5794 5796 5795 5794 5795 5799 5803 5803 5806 5809 5809 5812 5814 5818
5695 5695 5697 5699 5700 5703 5706 5710 5715 5718 5720 5725 5728 5732 5736 5739 5742 5747 5749 5753 5756 5759 5762 5765 5768 5772 5774 5776 5780 5780 5781 5786 5790 5789 5788 5788 5791 5793 5795 5795 5798 5801 5803 5806 5808
5692 5691 5693 5695 5697 5700 5702 5705 5707 5713 5716 5719 5722 5727 5731 5733 5737 5741 5744 5748 5751 5754 5756 5760 5765 5768 5769 5770 5772 5774 5775 5777 5779 5782 5780 5781 5784 5786 5786 5786 5788 5791 5794 5797 5798
5690 5689 5689 5691 5693 5695 5698 5700 5703 5705 5711 5716 5718 5722 5726 5730 5732 5735 5740 5742 5746 5748 5751 5755 5759 5760 5762 5763 5764 5766 5767 5771 5773 5775 5774 5774 5777 5778 5779 5779 5781 5783 5788 5791 5790
5689 5688 5686 5687 5690 5692 5695 5698 5701 5702 5705 5711 5715 5718 5722 5724 5728 5731 5733 5738 5740 5743 5744 5749 5751 5752 5753 5756 5758 5760 5764 5765 5767 5767 5770 5770 5770 5773 5774 5775 5777 5781 5782 5780 5779
5688 5687 5685 5684 5686 5688 5692 5695 5699 5701 5703 5705 5706 5711 5715 5720 5723 5727 5729 5732 5734 5736 5740 5745 5744 5747 5749 5750 5750 5752 5754 5755 5758 5760 5762 5768 5762 5767 5772 5772 5774 5772 5771 5770 5770
5686 5686 5685 5684 5684 5687 5689 5693 5696 5700 5700 5702 5703 5706 5709 5714 5717 5719 5724 5726 5729 5730 5735 5739 5741 5743 5745 5745 5746 5745 5749 5750 5751 5752 5751 5757 5758 5758 5763 5760 5759 5762 5762 5763 5766
5686 5684 5684 5683 5682 5683 5686 5691 5695 5696 5699 5701 5702 5704 5706 5708 5710 5711 5714 5718 5722 5723 5728 5730 5733 5735 5736 5738 5737 5737 5738 5741 5742 5743 5743 5748 5749 5747 5756 5751 5751 5750 5750 5749 5755
5685 5683 5683 5682 5681 5681 5684 5690 5693 5695 5696 5698 5701 5703 5704 5706 5708 5708 5710 5711 5712 5715 5717 5721 5727 5724 5725 5728 5731 5730 5731 5732 5730 5734 5739 5740 5736 5742 5744 5742 5743 5742 5738 5740 5742
5684 5683 5683 5682 5681 5681 5684 5688 5690 5691 5693 5696 5697 5699 5700 5701 5704 5706 5707 5709 5709 5711 5714 5715 5719 5718 5720 5720 5724 5727 5726 5725 5724 5723 5724 5727 5731 5731 5732 5731 5731 5733 5730 5727 5732
5681 5682 5682 5681 5681 5681 5683 5686 5688 5690 5693 5694 5694 5696 5698 5699 5701 5702 5704 5706 5708 5710 5711 5712 5714 5714 5716 5717 5716 5717 5720 5718 5717 5715 5715 5716 5719 5722 5722 5720 5721 5720 5720 5720 5719
5678 5679 5680 5680 5681 5681 5682 5684 5686 5687 5691 5693 5694 5695 5697 5698 5700 5701 5703 5705 5706 5707 5708 5709 5711 5712 5712 5713 5712 5709 5711 5710 5711 5709 5707 5707 5712 5713 5712 5711 5710 5710 5713 5712 5710
5675 5676 5676 5678 5681 5680 5681 5682 5684 5684 5687 5690 5691 5694 5695 5697 5698 5699 5699 5701 5703 5704 5704 5705 5706 5707 5708 5706 5706 5706 5704 5704 5702 5703 5701 5699 5702 5701 5698 5699 5701 5700 5697 5700 5701
5674 5674 5675 5675 5677 5678 5679 5679 5681 5683 5684 5685 5688 5690 5692 5692 5694 5694 5695 5699 5698 5698 5699 5700 5700 5701 5702 5701 5700 5699 5698 5696 5693 5693 5693 5691 5691 5689 5688 5686 5689 5689 5688 5686 5685
5672 5672 5673 5674 5675 5675 5676 5678 5678 5680 5681 5681 5683 5685 5687 5688 5688 5688 5689 5692 5693 5693 5692 5691 5692 5693 5694 5693 5691 5690 5687 5686 5684 5681 5680 5679 5679 5682 5674 5671 5675 5676 5675 5676 5675
5669 5669 5670 5671 5672 5673 5673 5674 5676 5676 5677 5679 5680 5682 5682 5684 5684 5682 5683 5684 5686 5686 5686 5686 5685 5684 5683 5683 5682 5680 5679 5677 5671 5668 5665 5668 5664 5664 5658 5661 5663 5662 5662 5663 5662
5663 5664 5667 5667 5668 5669 5670 5671 5673 5674 5674 5676 5676 5678 5677 5678 5678 5677 5677 5676 5677 5679 5678 5679 5679 5676 5675 5672 5669 5670 5668 5663 5661 5658 5656 5655 5653 5652 5649 5649 5651 5651 5651 5650 5648
5657 5659 5661 5662 5664 5666 5667 5668 5669 5668 5670 5670 5670 5672 5673 5672 5672 5672 5671 5671 5671 5670 5670 5671 5669 5668 5668 5663 5660 5658 5654 5651 5649 5648 5648 5646 5646 5643 5642 5641 5640 5641 5640 5638 5635